Dewpoint
10 8 9 11 10 8 8 8 5 3 4 3 2 2 4 6 6 10 10 9 7 5 5 2 4 9 11 10 11 12 12 9 10 10 11 11 10 11 10 9 10 10 10
12 10 10 11 10 9 9 8 6 3 4 3 2 1 3 3 5 8 6 4 3 4 1 0 3 9 10 9 10 10 5 7 8 9 10 11 11 11 10 10 11 10 10
1 1 7 11 11 10 9 9 8 4 5 4 2 1 2 3 3 3 2 4 4 2 -0 0 2 7 7 7 8 1 -2 1 4 7 6 5 8 8 8 10 10 10 11
2 2 1 7 12 10 10 10 9 6 5 5 3 3 2 4 3 1 4 4 3 2 -1 -2 -1 1 0 -4 -6 -5 -1 1 -0 1 3 8 7 5 9 10 10 8 8
-1 1 2 6 6 11 10 10 10 10 6 6 4 3 4 5 6 5 4 3 1 1 -2 -5 -6 -7 -8 -4 5 9 10 10 9 6 7 7 9 8 9 7 2 3 4
-1 3 5 4 5 5 9 11 11 11 8 7 6 4 3 7 6 8 7 4 0 -2 -3 -9 -8 -7 -5 5 8 9 10 11 10 7 5 6 7 8 -2 -5 -2 0 1
2 1 5 3 4 6 5 10 11 11 10 8 9 5 8 7 7 10 9 7 2 -6 -9 -9 -5 -0 3 7 8 9 9 10 9 7 4 1 5 -2 -10 -6 -3 -3 -2
5 3 3 3 5 5 6 10 12 11 12 10 10 8 9 8 7 10 10 8 0 -8 -9 -7 -6 -1 1 7 8 8 8 8 8 5 5 -4 -8 -10 -9 -10 -10 -12 -12
4 4 3 3 3 6 6 10 13 13 12 12 11 9 11 9 8 5 9 9 -4 -8 -10 -11 -9 1 5 6 7 8 8 7 6 3 -6 -11 -11 -10 -11 -11 -11 -10 -9
4 5 3 3 3 4 5 7 12 13 13 13 12 9 11 10 9 11 9 5 -4 -10 -11 -10 -11 -4 4 5 6 6 7 6 6 -1 -12 -10 -11 -11 -11 -12 -11 -10 -11
8 9 9 7 8 7 6 7 7 9 11 11 12 9 11 10 9 10 10 4 -6 -10 -9 -9 -11 -8 -2 5 6 6 6 6 4 -5 -9 -10 -10 -11 -11 -11 -11 -11 -10
9 10 10 10 10 7 8 8 8 9 11 12 11 8 11 9 6 10 11 4 -7 -8 -8 -10 -10 -8 3 5 6 6 6 5 5 4 -8 -9 -9 -9 -10 -11 -10 -9 -10
10 10 10 11 11 9 9 8 7 8 9 10 10 8 10 10 9 11 10 -0 -6 -7 -7 -8 -8 -6 1 5 6 7 6 6 6 6 -7 -8 -7 -8 -10 -10 -10 -10 -9
9 10 11 11 10 9 8 8 8 9 9 10 9 9 8 11 9 12 8 -3 -4 -4 -4 -6 -7 -5 4 6 6 7 6 6 6 5 -7 -8 -8 -7 -9 -9 -9 -9 -10
10 11 11 11 10 10 8 9 9 10 11 10 10 10 10 9 8 11 4 -2 -2 -1 -1 -4 -5 -3 5 5 5 6 6 6 6 6 -2 -7 -6 -8 -5 -9 -9 -9 -9
10 10 11 10 10 11 9 10 9 9 10 11 10 11 9 8 11 9 3 -0 1 2 1 -2 -4 -2 6 6 6 6 6 6 6 6 1 -6 -7 -4 -6 -9 -9 -8 -8
10 10 11 10 11 12 12 10 10 10 9 11 11 11 10 11 10 8 2 2 3 3 2 -0 1 3 4 6 7 7 7 6 6 5 4 -5 -6 -6 -7 -8 -8 -8 -7
10 11 11 10 11 11 11 11 10 11 10 10 11 10 10 9 8 9 4 3 4 4 3 5 7 8 7 6 5 6 7 6 6 6 5 5 -0 -6 -6 -6 -6 -6 -6
9 10 10 9 11 11 11 11 12 11 11 9 9 11 10 8 8 9 8 6 5 5 4 6 9 8 8 7 6 6 6 6 7 7 6 6 5 3 -0 -6 -6 -5 -5
9 9 9 10 11 10 11 11 11 11 11 9 10 10 10 8 7 7 8 8 6 6 6 8 9 8 8 6 6 6 6 6 6 6 7 7 6 6 4 2 0 -1 -2
8 9 7 9 10 10 11 10 11 11 11 10 10 9 8 8 7 7 8 7 6 7 7 7 9 8 7 5 4 4 4 5 5 6 6 6 7 6 4 3 1 2 2
8 7 5 9 10 10 9 9 8 9 11 11 10 9 9 9 8 8 8 7 8 7 7 8 9 8 6 4 3 3 3 3 3 4 6 6 6 7 5 4 3 2 1
8 3 6 10 9 10 10 8 9 9 9 10 11 11 10 9 9 9 9 8 8 8 9 9 8 7 5 4 4 3 4 4 4 3 4 4 5 6 6 5 3 3 1
6 2 7 11 9 9 10 10 10 9 9 10 10 11 10 10 9 8 9 9 9 9 9 9 8 7 5 5 5 3 4 4 4 4 4 3 2 2 2 3 2 1 1
7 0 6 11 11 9 10 10 9 9 9 9 10 10 10 10 9 10 9 9 9 9 8 7 5 6 6 6 6 5 4 5 6 6 5 5 4 4 4 4 4 3 3
8 1 7 11 10 9 10 10 10 10 10 10 10 10 10 10 10 10 9 9 9 8 7 7 7 7 6 6 5 6 5 5 5 5 5 4 4 5 5 6 6 6 6
Wind_Speed
7 10 11 1 10 17 19 20 20 20 19 18 19 19 19 18 17 16 15 16 19 19 20 20 20 21 22 20 17 17 16 14 21 24 23 22 20 19 18 19 20 21 20
5 7 9 3 11 18 19 19 18 19 20 20 18 18 18 18 18 16 16 17 19 19 19 19 20 21 21 18 16 14 11 15 18 21 22 20 18 16 16 18 18 19 19
6 6 8 4 9 17 18 20 19 21 21 21 20 21 20 18 17 17 17 19 20 20 20 21 21 21 20 18 16 15 17 18 19 18 19 19 19 14 17 19 18 19 21
6 6 7 3 6 16 17 19 21 20 21 22 23 23 24 19 16 15 18 18 19 20 21 20 21 22 21 21 21 22 21 17 17 19 19 17 16 13 17 19 19 18 18
6 6 6 6 6 9 18 20 23 22 23 24 25 25 23 17 12 16 17 18 18 19 20 22 23 25 26 28 30 30 27 21 15 17 18 18 19 18 18 18 15 15 15
4 6 7 9 10 11 13 22 25 28 26 27 28 29 23 20 17 18 19 19 17 17 19 22 27 29 31 35 33 29 26 21 17 10 17 20 20 18 15 15 15 15 15
7 8 10 10 13 14 15 17 24 29 31 30 31 31 22 18 24 20 20 21 18 16 21 25 31 36 37 34 31 27 22 22 14 9 13 16 18 16 14 14 15 15 16
13 12 13 13 15 16 18 20 21 28 32 32 35 31 25 26 30 24 23 22 18 17 22 28 34 35 35 34 27 24 22 17 11 10 12 14 15 14 14 14 13 13 12
14 15 15 16 17 19 22 24 25 24 31 34 35 35 26 34 28 29 28 25 21 22 22 26 33 37 36 34 31 27 23 15 9 10 14 15 15 15 13 12 11 12 12
12 13 15 17 16 21 25 27 29 30 32 37 38 33 40 38 31 33 31 27 24 25 26 28 31 34 34 32 29 24 20 13 7 8 15 16 14 13 13 12 12 12 12
12 13 14 15 16 17 23 25 29 33 35 37 39 38 47 31 32 33 33 28 26 27 28 29 31 33 32 32 27 23 18 10 4 12 14 14 13 13 13 13 13 12 12
15 15 20 20 20 17 20 23 25 31 34 36 42 41 46 33 33 37 35 29 30 29 27 30 31 32 34 33 29 22 16 9 6 5 9 12 13 14 14 14 12 11 11
13 14 19 18 18 16 16 17 15 8 24 43 37 41 33 39 41 42 36 31 33 32 33 33 33 34 33 34 28 22 18 14 6 4 11 12 12 13 13 13 12 11 9
17 14 19 17 17 12 13 14 11 9 10 31 44 44 49 47 44 44 38 38 37 37 36 35 34 34 36 30 29 22 17 12 9 4 13 13 12 13 13 13 12 10 9
19 15 16 17 14 10 14 14 9 8 10 16 43 45 57 44 44 43 41 42 40 37 36 34 34 35 33 28 24 25 14 13 11 7 12 13 12 13 13 13 11 9 8
18 19 16 14 9 11 16 12 10 2 8 16 45 53 50 50 51 45 43 43 41 38 36 35 34 35 28 24 25 21 15 14 11 8 10 13 12 13 13 12 10 8 7
17 17 14 7 11 12 14 16 13 9 10 23 46 53 49 53 47 45 46 46 42 39 36 33 31 28 26 19 20 21 12 13 12 8 6 13 13 12 11 9 8 7 6
19 18 13 9 12 12 12 16 17 12 17 24 37 43 42 42 44 44 47 46 42 40 37 32 28 24 22 21 23 25 14 14 12 10 8 6 10 12 10 9 9 8 8
20 18 14 12 15 14 14 15 15 15 23 29 43 41 46 44 42 41 43 44 43 41 38 33 28 28 26 22 23 23 21 17 12 11 10 8 6 6 8 10 10 10 10
23 18 11 15 20 19 16 16 17 18 21 32 39 47 45 45 42 41 40 40 42 41 38 35 29 31 26 23 21 22 20 20 15 15 14 11 11 9 8 10 11 11 12
21 16 12 17 19 20 19 21 22 24 27 29 43 40 47 44 47 43 40 39 42 40 38 39 33 31 26 25 21 20 18 18 19 19 17 15 14 15 15 14 12 13 14
16 13 14 19 20 20 20 20 22 27 29 34 40 46 49 49 47 46 44 43 41 41 40 39 38 32 28 26 25 24 20 18 19 20 23 22 19 19 20 19 18 18 18
18 14 17 20 19 19 18 18 18 22 26 35 40 50 54 48 47 51 47 45 43 43 42 39 37 34 31 29 24 21 13 11 22 24 25 25 25 26 25 25 23 24 24
19 14 18 21 19 18 17 16 13 15 20 29 46 46 51 53 52 52 45 43 42 44 41 37 31 30 30 32 25 25 18 10 11 10 19 22 25 26 26 26 26 27 26
19 16 19 22 20 18 17 13 13 11 14 18 31 39 50 51 53 58 50 46 43 40 40 34 33 30 30 30 29 29 26 17 14 10 8 13 17 19 20 21 24 28 28
20 16 20 22 21 20 18 17 14 13 17 14 29 36 36 53 54 56 55 50 48 40 37 34 33 34 34 24 25 25 31 28 24 21 20 19 21 23 24 27 27 26 27
Wind_Direction
24 10 14 91 173 170 171 168 164 164 166 171 173 173 174 175 174 172 167 159 156 159 158 157 157 152 155 156 151 147 142 138 138 128 123 121 123 122 125 125 123 116 112
73 2 1 29 183 178 179 176 172 176 172 173 178 178 173 172 171 171 170 166 166 163 159 158 157 156 160 160 153 149 146 147 147 140 136 131 125 127 129 129 125 124 118
36 355 348 6 205 192 185 182 184 185 184 182 184 177 171 169 171 173 172 169 165 164 160 158 158 160 158 155 151 148 142 142 140 139 137 136 129 131 124 124 125 116 117
10 340 313 288 222 207 198 194 198 195 193 192 187 176 169 160 170 175 172 170 168 165 159 158 155 152 144 139 133 126 119 120 129 140 140 135 133 137 118 118 118 116 118
305 290 285 272 259 221 217 208 210 212 200 202 189 180 166 157 180 183 177 168 165 162 159 154 151 143 138 130 124 116 112 113 111 132 133 131 117 113 119 123 124 121 120
270 275 247 255 255 251 236 223 217 215 213 207 195 179 174 160 167 190 179 167 164 164 154 145 145 139 130 126 121 115 113 125 142 133 141 127 122 121 118 120 121 125 124
232 258 255 247 256 252 245 233 226 221 217 212 197 187 188 200 181 190 184 172 166 163 155 150 140 134 134 130 127 130 126 146 153 155 138 128 123 124 125 127 128 124 119
216 240 253 252 250 245 244 239 233 228 222 213 200 199 188 181 163 186 191 181 172 160 154 147 141 141 137 134 134 136 140 157 173 165 148 138 133 133 133 134 130 125 122
231 236 248 253 250 243 240 237 230 228 223 210 206 202 210 183 170 172 193 186 170 155 153 151 146 145 141 137 131 137 153 158 159 145 147 145 140 138 133 136 131 126 121
256 253 265 268 256 250 246 240 235 230 222 215 204 222 195 177 169 183 190 186 168 159 156 153 150 149 146 140 140 152 155 157 159 135 146 143 142 142 143 139 135 129 125
272 274 278 277 271 271 250 238 237 236 233 221 204 204 185 178 176 180 193 187 170 162 158 158 155 153 149 146 142 144 156 168 158 141 150 149 149 150 145 140 139 138 128
266 271 285 282 280 286 251 243 241 243 230 206 208 208 173 182 174 186 193 182 170 162 162 161 159 155 152 147 141 143 166 153 135 108 166 161 157 154 144 145 140 134 129
253 251 274 271 285 286 248 240 210 231 237 216 199 199 190 186 179 188 185 178 171 167 167 165 161 157 154 151 147 151 164 165 180 229 187 171 162 154 153 148 141 137 140
245 249 259 269 290 262 226 214 261 255 207 208 204 209 211 189 179 188 183 178 173 171 169 167 163 157 154 153 153 145 159 173 199 201 190 180 168 161 161 154 148 143 137
229 239 259 273 279 245 224 225 205 259 231 189 182 192 177 182 187 188 184 177 175 172 171 168 165 158 157 160 154 155 177 183 201 203 201 181 173 174 169 165 157 144 141
243 252 256 269 239 226 224 222 205 185 164 214 163 170 182 182 187 186 183 178 177 176 174 171 166 162 161 160 152 166 183 191 211 210 202 192 185 184 181 174 169 161 158
257 237 242 238 232 221 216 217 217 202 187 145 172 174 177 185 182 185 182 179 180 179 175 172 168 165 170 163 163 166 174 189 208 211 207 207 198 196 191 185 180 178 193
222 226 232 209 222 214 201 204 214 202 182 166 156 172 179 188 187 185 183 181 182 181 176 173 172 170 173 179 173 169 182 204 204 210 208 213 217 221 211 208 205 208 218
218 222 245 208 209 200 196 188 196 193 184 180 179 182 181 190 188 189 186 185 186 184 180 176 176 179 182 189 179 176 183 199 206 218 216 226 227 231 230 231 232 237 237
224 235 245 204 212 210 203 193 184 190 190 188 180 183 182 190 191 190 193 188 189 188 184 181 180 191 194 188 184 185 188 192 212 231 233 229 240 256 255 243 244 247 249
221 225 220 199 199 203 201 197 196 187 195 195 194 193 190 192 192 191 195 192 194 192 188 185 188 192 187 189 184 183 188 197 205 220 233 241 236 256 266 262 260 255 257
215 215 208 190 205 207 202 206 205 201 197 205 201 203 200 197 199 191 191 190 190 193 187 187 190 187 188 188 189 179 184 202 210 215 213 228 240 249 260 267 269 271 271
211 214 193 193 198 208 210 202 201 204 210 210 211 205 201 204 200 188 186 191 192 192 192 188 190 193 184 188 202 185 174 213 220 220 224 227 228 237 251 260 268 271 271
201 208 191 192 196 202 209 210 209 219 214 214 213 202 214 202 194 188 187 191 191 193 182 182 187 194 191 192 189 200 218 211 205 207 225 232 238 240 246 252 260 266 268
196 203 194 198 199 203 210 208 235 234 237 229 218 213 193 197 193 188 188 192 189 194 197 192 196 212 199 200 200 208 215 213 209 210 233 244 238 241 246 254 264 263 266
192 200 197 198 203 206 203 193 206 223 221 225 209 206 201 195 198 193 190 191 193 188 187 189 193 200 204 204 226 219 230 228 240 247 257 265 272 273 265 267 271 273 272
Height
1493 1493 1493 1493 1494 1496 1498 1500 1502 1504 1509 1512 1514 1516 1518 1520 1521 1523 1525 1526 1528 1529 1532 1534 1536 1539 1542 1543 1545 1547 1548 1549 1550 1551 1553 1554 1555 1557 1558 1558 1559 1559 1561
1493 1493 1494 1494 1495 1495 1498 1500 1503 1505 1507 1509 1514 1517 1519 1521 1523 1525 1526 1528 1528 1530 1532 1534 1537 1539 1542 1544 1547 1548 1549 1550 1551 1553 1553 1556 1557 1559 1559 1560 1561 1561 1562
1491 1492 1493 1494 1496 1497 1498 1501 1503 1504 1506 1509 1513 1515 1519 1522 1525 1526 1528 1529 1530 1531 1532 1534 1536 1539 1541 1544 1547 1548 1550 1551 1552 1554 1555 1556 1556 1561 1560 1563 1563 1561 1563
1489 1491 1491 1493 1495 1496 1498 1500 1502 1504 1506 1507 1510 1515 1516 1521 1526 1528 1529 1530 1531 1532 1532 1534 1537 1539 1542 1545 1548 1550 1550 1553 1554 1555 1556 1558 1557 1560 1562 1564 1563 1562 1564
1487 1489 1490 1491 1493 1494 1496 1499 1501 1502 1503 1506 1507 1513 1518 1517 1528 1529 1529 1530 1531 1532 1533 1534 1538 1540 1542 1545 1548 1550 1551 1554 1557 1557 1557 1558 1561 1561 1564 1564 1564 1565 1566
1487 1486 1488 1488 1490 1491 1492 1495 1498 1500 1501 1502 1505 1508 1515 1517 1523 1531 1530 1531 1531 1532 1532 1534 1538 1541 1541 1545 1548 1551 1553 1554 1557 1558 1560 1558 1561 1564 1563 1565 1565 1566 1566
1483 1485 1485 1486 1486 1488 1488 1490 1493 1495 1498 1500 1505 1507 1510 1515 1524 1531 1533 1531 1531 1532 1534 1536 1539 1541 1541 1546 1549 1553 1554 1554 1557 1560 1561 1560 1562 1563 1564 1567 1568 1567 1568
1480 1481 1482 1483 1483 1484 1485 1486 1488 1490 1493 1498 1500 1508 1506 1509 1520 1527 1533 1532 1531 1533 1535 1537 1540 1543 1542 1547 1551 1554 1555 1555 1558 1561 1561 1561 1563 1564 1565 1568 1569 1569 1571
1477 1478 1479 1479 1480 1480 1481 1481 1483 1486 1491 1495 1493 1503 1507 1509 1517 1520 1527 1530 1532 1533 1536 1539 1541 1545 1543 1549 1552 1553 1555 1556 1560 1561 1561 1562 1564 1565 1567 1569 1570 1572 1573
1473 1475 1475 1475 1476 1476 1476 1476 1478 1481 1484 1488 1492 1495 1507 1508 1513 1518 1523 1527 1531 1533 1536 1540 1542 1545 1547 1551 1552 1555 1556 1558 1560 1561 1562 1563 1565 1566 1568 1570 1572 1573 1573
1468 1470 1471 1471 1471 1472 1470 1472 1473 1476 1477 1483 1488 1491 1491 1506 1510 1517 1524 1527 1530 1532 1536 1538 1542 1544 1548 1551 1554 1556 1555 1558 1561 1562 1563 1564 1566 1568 1569 1571 1572 1573 1573
1463 1465 1465 1466 1465 1465 1465 1465 1468 1469 1471 1474 1481 1487 1491 1504 1508 1514 1521 1527 1530 1532 1535 1539 1542 1546 1549 1551 1554 1555 1555 1558 1562 1563 1564 1566 1567 1568 1570 1571 1573 1574 1574
1459 1460 1461 1460 1460 1460 1459 1460 1462 1459 1457 1463 1474 1483 1493 1502 1505 1510 1517 1523 1527 1530 1534 1539 1542 1544 1547 1551 1553 1553 1555 1558 1562 1564 1566 1567 1568 1569 1571 1572 1572 1574 1577
1454 1456 1456 1457 1456 1455 1456 1456 1456 1454 1452 1451 1465 1477 1493 1499 1500 1509 1513 1520 1525 1528 1533 1537 1541 1544 1548 1550 1552 1554 1555 1559 1563 1564 1566 1568 1569 1570 1571 1572 1573 1575 1576
1451 1452 1453 1453 1453 1453 1453 1453 1452 1452 1450 1453 1460 1470 1485 1491 1498 1507 1512 1518 1522 1527 1531 1535 1541 1543 1547 1548 1551 1554 1555 1559 1562 1563 1566 1567 1569 1571 1572 1573 1574 1575 1577
1448 1449 1451 1450 1450 1451 1452 1452 1452 1451 1451 1442 1455 1467 1481 1486 1496 1504 1509 1515 1522 1526 1531 1536 1540 1543 1547 1547 1550 1554 1556 1559 1561 1563 1564 1566 1568 1571 1572 1573 1574 1576 1577
1444 1445 1447 1449 1449 1449 1450 1451 1452 1453 1451 1454 1455 1468 1480 1489 1493 1500 1506 1513 1519 1525 1531 1536 1540 1544 1546 1547 1551 1555 1555 1558 1561 1563 1563 1566 1568 1570 1572 1573 1574 1575 1577
1438 1440 1443 1447 1447 1448 1450 1450 1451 1454 1457 1459 1463 1472 1481 1487 1493 1499 1505 1511 1517 1524 1530 1535 1538 1541 1544 1547 1551 1554 1556 1557 1560 1562 1564 1565 1566 1568 1570 1572 1573 1574 1576
1433 1435 1439 1444 1446 1447 1448 1450 1451 1454 1458 1463 1468 1473 1479 1488 1494 1498 1503 1509 1515 1521 1527 1533 1538 1540 1543 1547 1550 1553 1557 1556 1558 1561 1562 1564 1566 1567 1568 1570 1572 1572 1574
1429 1431 1436 1440 1443 1444 1446 1448 1451 1453 1457 1461 1466 1472 1475 1484 1490 1495 1503 1507 1513 1519 1525 1530 1535 1539 1541 1544 1548 1553 1556 1557 1557 1559 1561 1563 1563 1565 1567 1568 1569 1569 1571
1424 1427 1432 1435 1439 1442 1444 1446 1449 1452 1456 1460 1465 1468 1474 1479 1485 1491 1499 1505 1510 1516 1520 1527 1532 1536 1540 1544 1547 1552 1555 1557 1558 1560 1558 1560 1561 1563 1565 1566 1567 1567 1568
1421 1422 1427 1431 1435 1439 1442 1444 1446 1450 1453 1457 1460 1464 1469 1475 1480 1485 1493 1501 1506 1512 1518 1523 1528 1531 1537 1541 1544 1548 1553 1556 1555 1557 1558 1558 1559 1560 1561 1562 1562 1563 1565
1417 1419 1422 1427 1431 1436 1438 1440 1442 1445 1448 1451 1453 1455 1461 1469 1475 1481 1488 1495 1501 1508 1513 1518 1524 1527 1533 1539 1542 1543 1549 1549 1552 1553 1554 1556 1558 1558 1558 1559 1559 1560 1561
1413 1416 1419 1424 1427 1432 1435 1437 1438 1437 1438 1440 1445 1444 1455 1460 1469 1477 1485 1490 1497 1503 1508 1513 1520 1525 1530 1535 1539 1542 1545 1546 1548 1549 1551 1552 1554 1555 1556 1556 1556 1556 1556
1408 1412 1416 1421 1425 1428 1432 1433 1433 1433 1434 1435 1439 1442 1443 1456 1463 1472 1481 1487 1493 1498 1504 1510 1516 1524 1528 1532 1536 1539 1543 1544 1544 1544 1546 1549 1550 1551 1552 1552 1551 1551 1551
1405 1408 1412 1418 1422 1425 1429 1432 1433 1433 1432 1432 1433 1438 1445 1452 1461 1468 1476 1483 1490 1497 1501 1507 1514 1519 1523 1529 1535 1537 1539 1540 1541 1542 1543 1544 1544 1545 1546 1547 1546 1546 1545